Location: Blackpool
(53.8200°N, 3.0410°W)
Time: 16:18:29
(UTC+00:00)

ISS - Visible Passes

Search period start: 12 December 2017 00:00
Search period end: 22 December 2017 00:00
Orbit: 402 x 406 km, 51.6° (Epoch: 12 December)

Date Brightness Start Highest point End Pass type
(mag) Time Alt. Az. Time Alt. Az. Time Alt. Az.
12 Dec -2.1 17:53:37 10° W 17:56:35 30° SSW 17:58:42 15° SSE visible
13 Dec -2.5 17:01:19 10° W 17:04:26 40° SSW 17:07:32 10° SE visible
13 Dec -0.9 18:38:33 10° WSW 18:40:18 14° SW 18:41:45 11° S visible
14 Dec -1.2 17:45:47 10° W 17:48:15 20° SSW 17:50:44 10° SSE visible
15 Dec -1.6 16:53:17 10° W 16:56:09 27° SSW 16:59:00 10° SE visible
16 Dec -0.5 17:38:30 10° WSW 17:39:47 12° SW 17:41:04 10° SSW visible
17 Dec -0.7 16:45:27 10° WSW 16:47:44 17° SSW 16:50:00 10° S visible
19 Dec 0.3 16:38:50 10° SW 16:39:09 10° SW 16:39:27 10° SW visible
